SCP
0 0 0 0 0 0 0 0 0 0 0 0 0 0 0 0 0 0 0 0 0 0 0 0 0 0 0 0 0 0 0 0 0 0 0 0 0 0 0 0 0 0 0 0
0 0 0 0 0 0 0 0 0 0 0 0 0 0 0 0 0 0 0 0 0 0 0 0 0 0 0 0 0 0 0 0 0 0 0 0 0 0 0 0 0 0 0 0
0 0 0 0 0 0 0 0 0 0 0 0 0 0 0 0 0 0 0 0 0 0 0 0 0 0 0 0 0 0 0 0 0 0 0 0 0 0 0 0 0 0 0 0
0 0 0 0 0 0 0 0 0 0 0 0 0 0 0 0 0 0 0 0 0 0 0 0 0 0 0 0 0 0 0 0 0 0 0 0 0 0 -0 0 0 0 0 0
0 0 0 0 0 0 0 0 0 0 0 0 0 0 0 0 0 0 0 0 0 0 0 0 0 0 0 0 0 0 0 0 0 0 0 0 0 0 -0 -0 0 0 0 0
0 0 0 0 0 0 0 0 0 0 0 0 0 0 0 0 0 0 0 0 0 0 0 0 0 0 0 0 0 0 0 0 0 0 0 0 0 0 0 0 0 0 0 0
0 0 0 0 0 0 0 0 0 0 0 0 0 0 0 0 0 0 0 0 0 0 0 0 0 0 0 0 0 0 0 0 0 0 0 0 0 0 0 0 0 0 0 0
0 0 0 0 0 0 0 0 0 0 0 0 0 0 0 0 0 0 0 0 0 0 0 0 0 0 0 0 0 0 0 0 0 0 0 0 -0 0 0 0 0 0 0 0
0 0 0 0 0 0 0 0 0 0 0 0 0 0 0 0 0 0 0 0 0 0 0 0 0 0 0 0 0 0 0 0 0 0 0 0 0 0 0 0 0 0 0 0
0 0 0 0 0 0 0 0 0 0 0 0 0 0 0 0 0 0 0 0 0 0 0 0 0 0 0 0 0 0 0 0 0 0 0 0 0 0 0 0 0 0 0 0
0 0 0 0 0 0 0 0 0 0 0 0 0 0 0 0 0 0 0 0 0 0 0 0 0 0 0 0 0 0 0 0 0 0 0 0 0 0 0 0 0 0 0 0
0 0 0 0 0 0 0 0 0 0 0 0 0 0 0 0 0 0 0 0 0 0 0 0 0 0 0 0 0 0 0 0 0 0 0 0 0 0 0 0 0 0 0 0
0 0 0 0 0 0 0 0 0 0 0 0 0 0 0 0 0 0 0 0 0 0 0 0 0 0 0 0 0 0 0 0 0 0 0 0 0 0 0 0 0 0 0 0
0 0 0 0 0 0 0 0 0 0 0 0 0 0 0 0 0 0 0 0 0 0 0 0 0 0 0 0 0 0 0 0 0 0 0 0 0 0 0 0 0 0 0 0
0 0 0 0 0 0 0 0 0 0 0 0 0 0 0 0 0 0 0 0 0 0 0 0 0 0 0 0 0 0 0 0 0 0 0 0 0 0 0 0 0 0 0 0
0 0 0 0 0 0 0 0 0 0 0 0 0 0 0 0 0 0 0 0 0 0 0 0 0 0 0 0 0 0 0 0 0 0 0 0 0 0 0 0 0 0 0 0
0 0 0 0 0 0 0 0 0 0 0 0 0 0 0 0 0 0 0 0 0 0 0 0 0 0 0 0 0 0 0 0 0 0 0 0 0 0 0 0 0 0 0 0
0 0 0 0 0 0 0 0 -0 -0 0 0 0 0 0 0 0 0 0 0 0 0 0 0 0 0 0 0 0 0 0 0 0 0 0 0 0 0 0 0 0 0 0 0
0 0 0 0 0 0 0 0 0 0 0 0 0 0 0 0 0 0 0 0 0 0 0 0 0 0 0 0 0 0 0 0 0 0 0 0 0 0 0 0 0 0 0 0
0 0 0 0 0 0 0 0 0 0 0 0 0 0 0 0 0 0 0 0 0 0 0 0 0 0 0 0 0 0 0 0 0 0 0 0 0 0 0 0 0 0 0 0
0 0 0 0 0 0 0 0 0 0 0 0 0 0 0 0 0 0 0 0 0 0 0 0 0 0 0 0 0 0 0 0 0 0 0 0 0 0 0 0 0 0 0 0
0 0 0 0 0 0 0 0 0 0 0 0 0 0 0 0 0 0 0 0 0 0 0 0 0 0 0 0 0 0 0 0 0 0 0 0 0 0 0 0 0 0 0 0
0 0 0 0 0 0 0 0 0 -0 0 0 0 0 0 0 0 0 0 0 0 0 0 0 0 0 0 0 0 0 0 0 0 0 0 0 0 0 0 0 0 -0 -0 0
0 0 0 0 0 0 0 0 0 0 0 0 0 0 0 0 0 0 0 0 0 0 0 0 0 0 0 0 0 0 0 0 0 0 0 0 0 0 0 0 0 0 0 0
0 0 0 0 0 0 0 0 0 0 0 0 0 0 0 0 0 0 0 0 0 0 0 0 0 0 0 0 0 0 0 0 0 0 0 0 0 0 0 0 0 -0 0 0
0 0 0 0 0 0 0 0 0 0 0 0 0 0 0 0 0 0 0 0 0 0 0 0 0 0 0 0 0 0 0 0 0 0 0 0 0 0 0 0 0 0 0 0
0 0 0 0 0 0 0 0 0 0 0 0 0 0 0 0 0 0 0 0 0 0 0 0 0 0 -0 -0 -0 0 -0 -0 -0 -0 -0 0 0 0 0 0 0 0 0 0
Wind_Speed_500mb
36 30 32 33 24 27 30 11 9 15 35 21 13 12 5 0 15 7 4 3 2 6 4 4 4 5 8 2 9 12 11 12 21 38 39 20 10 18 22 19 33 33 34 45
25 25 26 27 27 35 19 13 4 21 31 13 14 10 9 3 11 13 9 7 4 4 7 6 6 5 6 2 6 11 15 7 20 6 13 16 11 9 24 31 33 47 37 42
20 17 21 22 27 38 24 9 7 11 20 8 12 19 17 13 2 9 6 11 8 10 10 5 5 11 10 7 9 4 6 15 22 23 33 33 44 41 40 39 30 41 46 60
18 12 17 19 25 36 24 5 6 4 11 19 16 21 19 22 14 10 15 8 16 16 9 9 10 8 9 18 14 11 9 18 27 33 38 40 45 45 46 43 44 42 56 62
14 9 11 18 24 33 15 7 6 7 6 18 23 12 20 25 15 17 14 17 13 11 12 9 2 8 9 12 10 14 11 16 27 36 36 32 41 41 46 42 42 45 49 55
12 7 4 12 19 28 8 12 15 5 11 18 19 17 17 22 24 4 7 15 11 10 4 4 9 12 18 17 15 16 16 10 16 12 22 40 30 21 20 29 33 39 45 47
12 6 7 7 16 29 17 17 8 6 7 15 15 11 18 20 25 8 12 8 9 9 4 11 16 21 27 30 31 29 17 15 11 20 27 9 10 28 42 45 43 41 48 49
8 6 12 13 13 19 17 23 7 5 6 16 10 19 21 23 14 15 16 10 8 5 4 6 6 5 8 17 25 26 29 16 9 8 17 40 42 8 33 41 51 46 50 50
8 8 12 13 14 16 16 20 16 9 12 9 15 24 27 14 15 13 14 8 7 4 6 2 4 7 5 4 6 19 16 19 16 14 19 16 22 44 55 43 41 42 56 58
8 8 9 9 12 12 15 17 16 10 13 5 16 14 21 7 14 5 17 15 9 8 8 7 7 7 4 8 10 9 15 17 25 22 20 23 37 34 65 22 39 81 87 83
8 8 8 8 7 12 14 17 15 14 11 11 7 9 14 13 14 9 22 14 7 11 9 5 6 5 6 10 17 13 12 10 15 17 18 22 35 74 43 56 77 82 82 85
6 5 8 8 8 11 20 12 14 16 10 9 13 11 12 9 6 6 21 5 11 10 6 1 4 3 7 12 8 1 7 12 17 14 22 70 77 71 84 78 87 94 89 82
8 4 4 7 10 11 16 14 12 10 9 8 1 4 11 24 22 13 10 8 6 7 3 7 4 7 12 9 12 23 18 24 20 26 20 53 69 85 77 82 88 91 92 90
8 6 7 10 9 9 11 11 11 12 9 4 4 2 3 8 16 20 11 10 7 8 4 8 1 4 9 10 19 25 26 30 18 33 49 71 53 73 80 91 89 96 83 73
13 10 9 8 7 8 9 4 5 7 4 3 6 4 7 2 13 19 20 17 13 10 3 4 6 5 10 27 24 18 25 9 13 21 56 46 73 78 78 87 104 70 68 39
13 10 9 7 5 7 7 1 6 6 7 3 4 3 7 4 11 18 21 22 16 7 6 8 9 16 10 8 11 26 27 12 33 26 46 49 58 57 64 84 79 55 47 26
9 6 4 7 6 11 4 4 2 9 15 5 4 9 9 15 18 18 14 14 9 8 7 12 13 15 12 7 24 30 28 24 36 29 38 36 37 58 66 57 58 40 32 23
8 7 2 7 9 8 4 6 15 18 5 4 2 6 13 20 11 10 12 12 10 12 9 8 12 9 12 10 25 19 16 33 25 32 28 28 39 41 45 45 43 44 44 32
6 8 4 3 5 3 6 6 10 9 10 7 10 6 6 20 7 12 12 12 8 13 13 13 14 10 12 22 19 7 17 22 34 39 27 27 32 36 35 37 34 34 38 36
7 12 4 4 4 7 7 6 4 6 8 9 9 19 6 21 17 9 13 11 6 6 14 11 7 14 42 9 4 10 16 22 26 26 25 33 30 29 28 29 25 26 35 39
7 7 4 5 4 12 5 5 8 11 8 15 14 32 14 15 11 9 17 7 5 5 8 7 6 8 19 19 9 6 12 17 19 14 14 17 19 19 21 22 22 25 31 40
13 10 9 7 9 8 8 8 10 9 7 19 13 14 14 8 9 6 3 5 6 8 13 4 6 7 23 19 14 7 4 9 13 12 11 13 16 14 14 17 22 24 30 35
13 9 6 9 12 13 12 15 9 8 14 19 21 15 14 10 11 6 9 9 10 4 5 7 7 23 21 18 17 9 5 8 10 12 14 15 17 19 21 25 26 25 31 39
9 10 11 12 11 12 13 16 8 14 11 29 31 22 10 9 12 9 8 9 5 6 7 9 9 24 23 19 16 12 10 11 15 18 19 21 24 26 26 29 31 35 38 37
12 12 11 18 26 17 2 12 7 10 21 34 24 8 10 11 7 8 7 7 9 9 10 5 18 23 25 24 20 17 16 16 17 19 21 24 25 28 31 31 32 33 34 33
11 15 14 20 14 24 18 13 20 18 25 27 11 10 8 9 6 11 12 6 10 5 12 13 17 22 26 26 21 20 20 19 19 18 20 23 25 26 31 31 30 30 32 40
17 25 40 28 12 18 24 27 24 24 34 14 13 12 13 10 7 9 10 9 5 9 10 9 13 25 28 25 24 24 24 22 21 21 21 23 24 26 25 26 24 24 28 28
Wind_Direction_500mb
178 183 177 185 182 173 168 185 224 199 165 204 196 201 169 150 157 169 129 299 356 232 181 172 222 221 14 39 330 318 17 306 284 283 282 302 315 288 289 277 288 289 302 279
157 159 161 172 179 167 167 206 160 183 177 207 192 119 137 160 185 182 180 150 272 230 185 217 226 179 118 331 312 1 2 251 306 251 132 175 247 320 307 293 285 276 279 281
137 151 160 171 178 175 157 184 170 168 205 284 208 179 175 146 185 158 199 138 174 179 196 211 185 199 184 259 268 85 302 264 268 282 304 303 294 296 295 288 279 287 279 291
126 148 158 174 182 179 178 209 223 151 188 202 203 196 168 164 164 215 203 192 213 198 222 219 221 224 185 228 232 258 250 272 281 291 298 294 290 291 286 281 279 276 286 287
118 134 162 175 182 181 173 171 181 190 134 177 185 170 204 180 136 168 196 261 196 210 237 248 292 244 214 266 164 256 263 278 301 292 288 296 298 290 288 283 275 272 281 287
102 92 155 176 183 181 189 212 168 262 138 180 195 190 174 191 149 206 315 228 186 214 333 348 319 296 286 277 272 279 279 284 317 284 330 316 295 283 305 298 290 291 288 294
97 106 115 134 176 193 179 178 146 125 168 195 198 153 174 179 179 151 157 161 221 82 34 309 269 260 259 256 250 242 252 268 278 292 312 263 272 316 307 294 286 277 280 287
112 83 103 115 141 171 175 158 132 152 148 177 160 160 165 127 135 129 147 128 93 101 313 279 324 214 252 232 229 225 226 252 267 266 290 288 283 344 340 318 305 305 296 294
134 97 93 91 112 133 143 152 130 98 125 197 166 165 166 157 168 146 145 137 130 128 241 203 238 224 282 237 255 193 217 220 250 262 286 278 312 323 317 318 288 303 339 329
133 98 91 86 79 95 118 126 143 111 94 117 172 171 188 174 176 159 143 157 149 192 198 222 224 260 340 258 245 206 218 234 241 253 257 263 282 339 330 300 306 326 311 304
132 92 55 45 50 75 98 91 111 97 108 154 143 144 156 168 208 172 133 143 191 184 216 211 227 277 240 280 275 279 277 283 281 285 288 280 335 327 320 314 310 308 303 297
172 112 64 52 60 78 95 77 96 95 125 139 176 188 186 144 117 111 179 57 146 163 217 10 349 216 278 283 280 342 262 238 293 290 278 302 305 310 317 321 318 314 310 304
236 187 93 90 86 76 85 78 58 86 104 109 127 218 249 209 169 146 161 201 137 166 37 74 66 251 295 277 275 290 284 308 290 308 284 303 316 316 320 320 316 312 307 302
212 206 155 135 124 104 95 80 57 68 76 98 122 164 172 212 203 184 152 133 137 116 142 92 185 234 285 273 295 301 286 295 276 288 297 325 307 315 320 318 317 313 321 313
155 154 148 141 128 99 90 53 9 123 75 98 107 153 189 214 185 200 206 193 171 142 133 123 213 219 256 261 270 263 237 317 316 301 315 313 304 318 324 325 323 330 338 341
149 148 150 153 143 126 98 81 34 192 154 102 131 145 184 204 185 191 193 192 198 149 162 208 227 247 269 259 264 262 272 302 323 321 308 306 306 319 332 334 334 337 347 331
156 149 161 164 173 131 169 47 320 159 132 115 198 163 167 142 142 151 161 170 163 164 204 228 242 234 203 257 255 269 279 319 318 324 327 320 331 325 337 341 355 1 3 0
174 145 150 178 173 181 132 142 101 122 112 110 251 182 189 185 153 131 157 156 165 209 227 225 225 220 212 255 263 244 300 320 320 327 327 308 315 334 349 358 12 32 48 63
178 164 153 190 167 218 201 185 214 245 229 199 202 216 150 171 145 117 146 159 175 196 211 225 213 206 220 243 269 330 322 319 311 326 337 339 347 347 358 8 22 47 61 72
147 144 159 246 223 216 174 178 220 233 213 225 243 216 155 184 168 149 146 180 228 218 212 190 235 247 244 240 211 270 301 313 323 336 347 348 351 351 7 24 31 58 82 89
169 164 194 219 165 167 205 223 216 191 230 207 224 228 161 188 186 150 197 165 200 249 164 229 226 245 194 164 172 273 307 324 337 342 341 358 359 7 28 41 51 72 89 98
188 170 176 209 203 197 214 213 191 220 241 163 188 189 199 150 171 153 170 214 183 254 145 231 249 153 155 163 162 174 306 353 9 16 21 30 37 49 64 72 77 82 100 109
207 197 210 212 188 232 215 194 199 206 188 171 166 147 154 157 182 191 184 210 223 193 208 234 266 145 162 162 156 154 107 55 63 62 68 72 80 88 86 88 91 97 106 115
215 207 213 221 195 235 213 233 209 197 163 158 165 153 141 156 172 204 216 211 188 229 233 229 215 160 166 163 167 156 136 107 94 89 91 96 95 89 89 96 106 113 111 112
222 219 229 220 228 233 339 274 208 142 162 157 154 139 173 171 186 204 217 195 234 226 238 183 119 149 164 167 168 165 151 132 116 111 110 105 103 104 105 110 115 121 124 124
224 234 245 240 266 239 221 222 226 187 172 163 192 172 197 178 193 188 211 233 225 206 202 115 151 163 172 173 174 169 158 152 139 130 124 120 118 116 118 121 122 123 123 121
216 225 226 241 247 251 234 222 223 193 177 192 204 201 190 155 193 208 195 221 291 97 122 151 180 175 173 171 170 172 161 155 155 149 141 134 131 126 122 122 124 128 135 133
Wind_Speed_850mb
36 30 32 33 24 27 30 11 9 15 35 21 13 12 5 0 15 7 4 3 2 6 4 4 4 5 8 2 9 12 11 12 21 38 39 20 10 18 22 19 33 33 34 45
25 25 26 27 27 35 19 13 4 21 31 13 14 10 9 3 11 13 9 7 4 4 7 6 6 5 6 2 6 11 15 7 20 6 13 16 11 9 24 31 33 47 37 42
20 17 21 22 27 38 24 9 7 11 20 8 12 19 17 13 2 9 6 11 8 10 10 5 5 11 10 7 9 4 6 15 22 23 33 33 44 41 40 39 30 41 46 60
18 12 17 19 25 36 24 5 6 4 11 19 16 21 19 22 14 10 15 8 16 16 9 9 10 8 9 18 14 11 9 18 27 33 38 40 45 45 46 43 44 42 56 62
14 9 11 18 24 33 15 7 6 7 6 18 23 12 20 25 15 17 14 17 13 11 12 9 2 8 9 12 10 14 11 16 27 36 36 32 41 41 46 42 42 45 49 55
12 7 4 12 19 28 8 12 15 5 11 18 19 17 17 22 24 4 7 15 11 10 4 4 9 12 18 17 15 16 16 10 16 12 22 40 30 21 20 29 33 39 45 47
12 6 7 7 16 29 17 17 8 6 7 15 15 11 18 20 25 8 12 8 9 9 4 11 16 21 27 30 31 29 17 15 11 20 27 9 10 28 42 45 43 41 48 49
8 6 12 13 13 19 17 23 7 5 6 16 10 19 21 23 14 15 16 10 8 5 4 6 6 5 8 17 25 26 29 16 9 8 17 40 42 8 33 41 51 46 50 50
8 8 12 13 14 16 16 20 16 9 12 9 15 24 27 14 15 13 14 8 7 4 6 2 4 7 5 4 6 19 16 19 16 14 19 16 22 44 55 43 41 42 56 58
8 8 9 9 12 12 15 17 16 10 13 5 16 14 21 7 14 5 17 15 9 8 8 7 7 7 4 8 10 9 15 17 25 22 20 23 37 34 65 22 39 81 87 83
8 8 8 8 7 12 14 17 15 14 11 11 7 9 14 13 14 9 22 14 7 11 9 5 6 5 6 10 17 13 12 10 15 17 18 22 35 74 43 56 77 82 82 85
6 5 8 8 8 11 20 12 14 16 10 9 13 11 12 9 6 6 21 5 11 10 6 1 4 3 7 12 8 1 7 12 17 14 22 70 77 71 84 78 87 94 89 82
8 4 4 7 10 11 16 14 12 10 9 8 1 4 11 24 22 13 10 8 6 7 3 7 4 7 12 9 12 23 18 24 20 26 20 53 69 85 77 82 88 91 92 90
8 6 7 10 9 9 11 11 11 12 9 4 4 2 3 8 16 20 11 10 7 8 4 8 1 4 9 10 19 25 26 30 18 33 49 71 53 73 80 91 89 96 83 73
13 10 9 8 7 8 9 4 5 7 4 3 6 4 7 2 13 19 20 17 13 10 3 4 6 5 10 27 24 18 25 9 13 21 56 46 73 78 78 87 104 70 68 39
13 10 9 7 5 7 7 1 6 6 7 3 4 3 7 4 11 18 21 22 16 7 6 8 9 16 10 8 11 26 27 12 33 26 46 49 58 57 64 84 79 55 47 26
9 6 4 7 6 11 4 4 2 9 15 5 4 9 9 15 18 18 14 14 9 8 7 12 13 15 12 7 24 30 28 24 36 29 38 36 37 58 66 57 58 40 32 23
8 7 2 7 9 8 4 6 15 18 5 4 2 6 13 20 11 10 12 12 10 12 9 8 12 9 12 10 25 19 16 33 25 32 28 28 39 41 45 45 43 44 44 32
6 8 4 3 5 3 6 6 10 9 10 7 10 6 6 20 7 12 12 12 8 13 13 13 14 10 12 22 19 7 17 22 34 39 27 27 32 36 35 37 34 34 38 36
7 12 4 4 4 7 7 6 4 6 8 9 9 19 6 21 17 9 13 11 6 6 14 11 7 14 42 9 4 10 16 22 26 26 25 33 30 29 28 29 25 26 35 39
7 7 4 5 4 12 5 5 8 11 8 15 14 32 14 15 11 9 17 7 5 5 8 7 6 8 19 19 9 6 12 17 19 14 14 17 19 19 21 22 22 25 31 40
13 10 9 7 9 8 8 8 10 9 7 19 13 14 14 8 9 6 3 5 6 8 13 4 6 7 23 19 14 7 4 9 13 12 11 13 16 14 14 17 22 24 30 35
13 9 6 9 12 13 12 15 9 8 14 19 21 15 14 10 11 6 9 9 10 4 5 7 7 23 21 18 17 9 5 8 10 12 14 15 17 19 21 25 26 25 31 39
9 10 11 12 11 12 13 16 8 14 11 29 31 22 10 9 12 9 8 9 5 6 7 9 9 24 23 19 16 12 10 11 15 18 19 21 24 26 26 29 31 35 38 37
12 12 11 18 26 17 2 12 7 10 21 34 24 8 10 11 7 8 7 7 9 9 10 5 18 23 25 24 20 17 16 16 17 19 21 24 25 28 31 31 32 33 34 33
11 15 14 20 14 24 18 13 20 18 25 27 11 10 8 9 6 11 12 6 10 5 12 13 17 22 26 26 21 20 20 19 19 18 20 23 25 26 31 31 30 30 32 40
17 25 40 28 12 18 24 27 24 24 34 14 13 12 13 10 7 9 10 9 5 9 10 9 13 25 28 25 24 24 24 22 21 21 21 23 24 26 25 26 24 24 28 28
Wind_Direction_850mb
178 183 177 185 182 173 168 185 224 199 165 204 196 201 169 150 157 169 129 299 356 232 181 172 222 221 14 39 330 318 17 306 284 283 282 302 315 288 289 277 288 289 302 279
157 159 161 172 179 167 167 206 160 183 177 207 192 119 137 160 185 182 180 150 272 230 185 217 226 179 118 331 312 1 2 251 306 251 132 175 247 320 307 293 285 276 279 281
137 151 160 171 178 175 157 184 170 168 205 284 208 179 175 146 185 158 199 138 174 179 196 211 185 199 184 259 268 85 302 264 268 282 304 303 294 296 295 288 279 287 279 291
126 148 158 174 182 179 178 209 223 151 188 202 203 196 168 164 164 215 203 192 213 198 222 219 221 224 185 228 232 258 250 272 281 291 298 294 290 291 286 281 279 276 286 287
118 134 162 175 182 181 173 171 181 190 134 177 185 170 204 180 136 168 196 261 196 210 237 248 292 244 214 266 164 256 263 278 301 292 288 296 298 290 288 283 275 272 281 287
102 92 155 176 183 181 189 212 168 262 138 180 195 190 174 191 149 206 315 228 186 214 333 348 319 296 286 277 272 279 279 284 317 284 330 316 295 283 305 298 290 291 288 294
97 106 115 134 176 193 179 178 146 125 168 195 198 153 174 179 179 151 157 161 221 82 34 309 269 260 259 256 250 242 252 268 278 292 312 263 272 316 307 294 286 277 280 287
112 83 103 115 141 171 175 158 132 152 148 177 160 160 165 127 135 129 147 128 93 101 313 279 324 214 252 232 229 225 226 252 267 266 290 288 283 344 340 318 305 305 296 294
134 97 93 91 112 133 143 152 130 98 125 197 166 165 166 157 168 146 145 137 130 128 241 203 238 224 282 237 255 193 217 220 250 262 286 278 312 323 317 318 288 303 339 329
133 98 91 86 79 95 118 126 143 111 94 117 172 171 188 174 176 159 143 157 149 192 198 222 224 260 340 258 245 206 218 234 241 253 257 263 282 339 330 300 306 326 311 304
132 92 55 45 50 75 98 91 111 97 108 154 143 144 156 168 208 172 133 143 191 184 216 211 227 277 240 280 275 279 277 283 281 285 288 280 335 327 320 314 310 308 303 297
172 112 64 52 60 78 95 77 96 95 125 139 176 188 186 144 117 111 179 57 146 163 217 10 349 216 278 283 280 342 262 238 293 290 278 302 305 310 317 321 318 314 310 304
236 187 93 90 86 76 85 78 58 86 104 109 127 218 249 209 169 146 161 201 137 166 37 74 66 251 295 277 275 290 284 308 290 308 284 303 316 316 320 320 316 312 307 302
212 206 155 135 124 104 95 80 57 68 76 98 122 164 172 212 203 184 152 133 137 116 142 92 185 234 285 273 295 301 286 295 276 288 297 325 307 315 320 318 317 313 321 313
155 154 148 141 128 99 90 53 9 123 75 98 107 153 189 214 185 200 206 193 171 142 133 123 213 219 256 261 270 263 237 317 316 301 315 313 304 318 324 325 323 330 338 341
149 148 150 153 143 126 98 81 34 192 154 102 131 145 184 204 185 191 193 192 198 149 162 208 227 247 269 259 264 262 272 302 323 321 308 306 306 319 332 334 334 337 347 331
156 149 161 164 173 131 169 47 320 159 132 115 198 163 167 142 142 151 161 170 163 164 204 228 242 234 203 257 255 269 279 319 318 324 327 320 331 325 337 341 355 1 3 0
174 145 150 178 173 181 132 142 101 122 112 110 251 182 189 185 153 131 157 156 165 209 227 225 225 220 212 255 263 244 300 320 320 327 327 308 315 334 349 358 12 32 48 63
178 164 153 190 167 218 201 185 214 245 229 199 202 216 150 171 145 117 146 159 175 196 211 225 213 206 220 243 269 330 322 319 311 326 337 339 347 347 358 8 22 47 61 72
147 144 159 246 223 216 174 178 220 233 213 225 243 216 155 184 168 149 146 180 228 218 212 190 235 247 244 240 211 270 301 313 323 336 347 348 351 351 7 24 31 58 82 89
169 164 194 219 165 167 205 223 216 191 230 207 224 228 161 188 186 150 197 165 200 249 164 229 226 245 194 164 172 273 307 324 337 342 341 358 359 7 28 41 51 72 89 98
188 170 176 209 203 197 214 213 191 220 241 163 188 189 199 150 171 153 170 214 183 254 145 231 249 153 155 163 162 174 306 353 9 16 21 30 37 49 64 72 77 82 100 109
207 197 210 212 188 232 215 194 199 206 188 171 166 147 154 157 182 191 184 210 223 193 208 234 266 145 162 162 156 154 107 55 63 62 68 72 80 88 86 88 91 97 106 115
215 207 213 221 195 235 213 233 209 197 163 158 165 153 141 156 172 204 216 211 188 229 233 229 215 160 166 163 167 156 136 107 94 89 91 96 95 89 89 96 106 113 111 112
222 219 229 220 228 233 339 274 208 142 162 157 154 139 173 171 186 204 217 195 234 226 238 183 119 149 164 167 168 165 151 132 116 111 110 105 103 104 105 110 115 121 124 124
224 234 245 240 266 239 221 222 226 187 172 163 192 172 197 178 193 188 211 233 225 206 202 115 151 163 172 173 174 169 158 152 139 130 124 120 118 116 118 121 122 123 123 121
216 225 226 241 247 251 234 222 223 193 177 192 204 201 190 155 193 208 195 221 291 97 122 151 180 175 173 171 170 172 161 155 155 149 141 134 131 126 122 122 124 128 135 133